1498075200.21,29511,21.94,74160.3,3.09,-22.03,-31.05,0,*7D
1498075201.47,29512,21.94,74160.3,3.09,-21.87,-30.77,0,*75
1498075202.73,29513,21.94,74156.3,3.09,-21.87,-30.73,0,*70
1498075203.95,29514,21.94,74160.5,3.09,-21.73,-30.55,0,*78
1498075205.17,29515,21.94,74160.3,3.09,-21.73,-30.55,0,*79
1498075206.45,29516,21.94,74150.3,3.11,-21.27,-30.17,0,*74
1498075207.67,29517,21.94,74148.5,3.11,-21.43,-30.23,0,*70
1498075208.92,29518,21.94,74152.0,3.11,-21.63,-30.51,0,*78
1498075210.15,29519,21.94,74150.8,3.11,-21.73,-30.67,0,*7D
1498075211.4,29520,21.94,74156.3,3.11,-21.77,-30.51,0,*76
1498075212.62,29521,21.94,74154.5,3.11,-21.47,-30.33,0,*70
1498075213.9,29522,21.94,74154.3,3.11,-21.27,-30.17,0,*73
1498075215.15,29523,21.94,74150.8,3.11,-21.63,-30.39,0,*7E
1498075216.39,29524,21.94,74142.5,3.11,-21.63,-30.51,0,*77
1498075217.63,29525,21.94,74154.0,3.13,-21.53,-30.33,0,*73
1498075218.86,29526,21.94,74150.8,3.13,-21.73,-30.61,0,*75
1498075220.09,29527,21.94,74150.8,3.13,-21.73,-30.61,0,*74
1498075221.32,29528,21.94,74142.0,3.15,-21.73,-30.45,0,*7B
1498075222.57,29529,21.94,74142.3,3.13,-21.83,-30.61,0,*75
1498075223.83,29530,21.94,74140.0,3.09,-21.87,-30.77,0,*75
1498075225.08,29531,21.94,74144.8,3.11,-21.93,-30.95,0,*74
1498075226.34,29532,21.94,74150.8,3.11,-21.93,-30.73,0,*7F
1498075227.6,29533,21.94,74158.5,3.11,-21.93,-30.77,0,*7A
1498075228.83,29534,21.94,74154.5,3.13,-21.83,-30.67,0,*7F
1498075230.09,29535,21.94,74158.0,3.13,-21.87,-30.73,0,*7F
1498075231.32,29536,21.94,74158.0,3.13,-21.97,-30.83,0,*72
1498075232.58,29537,21.94,74154.5,3.11,-21.93,-30.89,0,*7F
1498075233.83,29538,21.94,74158.5,3.11,-22.11,-31.11,0,*79
1498075235.07,29539,21.94,74158.0,3.11,-22.03,-30.95,0,*76
1498075236.29,29540,21.94,74158.5,3.11,-22.03,-31.05,0,*70
1498075237.57,29541,21.94,74152.0,3.11,-21.87,-30.73,0,*7E
1498075238.81,29542,21.94,74156.0,3.13,-21.83,-30.67,0,*7E
1498075240.07,29543,21.94,74158.8,3.11,-21.93,-30.77,0,*7D
1498075241.32,29544,21.94,74162.0,3.11,-21.93,-30.73,0,*7E
1498075242.52,29545,21.94,74160.3,3.13,-21.73,-30.45,0,*76
1498075243.75,29546,21.94,74154.3,3.13,-21.67,-30.27,0,*74
1498075244.98,29547,21.94,74152.3,3.13,-21.73,-30.51,0,*71
1498075246.23,29548,21.94,74150.8,3.15,-21.83,-30.67,0,*72
1498075247.49,29549,21.94,74154.5,3.13,-21.97,-30.73,0,*75
1498075248.72,29550,21.94,74154.0,3.13,-21.87,-30.67,0,*79
1498075249.98,29551,21.94,74154.8,3.15,-21.87,-30.67,0,*7E
1498075251.24,29552,21.94,74158.0,3.13,-21.97,-30.73,0,*7F
1498075252.49,29553,21.94,74156.8,3.13,-21.97,-30.73,0,*7E
1498075253.74,29554,21.94,74152.8,3.13,-21.87,-30.51,0,*78
1498075254.99,29555,21.94,74160.3,3.11,-21.93,-30.55,0,*7A
1498075256.22,29556,21.94,74144.8,3.09,-22.07,-30.77,0,*7E
1498075257.47,29557,21.94,74152.3,3.11,-22.07,-30.77,0,*76
1498075258.72,29558,21.94,74152.0,3.13,-21.97,-30.51,0,*75
1498075259.95,29559,21.94,74156.3,3.13,-21.83,-30.33,0,*75
1498075261.17,29560,21.94,74160.8,3.13,-21.83,-30.33,0,*7F
1498075262.38,29561,21.94,74162.8,3.13,-21.73,-30.45,0,*70
1498075263.6,29562,21.94,74162.8,3.13,-21.83,-30.45,0,*7C
1498075264.88,29563,21.94,74158.3,3.11,-21.87,-30.39,0,*70
1498075266.13,29564,21.94,74156.0,3.11,-21.93,-30.51,0,*7C
1498075267.4,29565,21.94,74162.8,3.11,-21.87,-30.39,0,*76
1498075268.63,29566,21.94,74150.8,3.11,-21.77,-30.23,0,*71
1498075269.88,29567,21.94,74154.3,3.13,-21.67,-30.17,0,*74
1498075271.11,29568,21.94,74156.3,3.13,-21.57,-30.11,0,*7E
1498075272.31,29569,21.94,74158.3,3.13,-21.73,-30.27,0,*7C
1498075273.53,29570,21.94,74154.8,3.13,-21.83,-30.45,0,*7F
1498075274.79,29571,21.94,74156.3,3.15,-21.87,-30.33,0,*7D
1498075276.04,29572,21.94,74156.3,3.15,-21.73,-30.17,0,*73
1498075277.29,29573,21.94,74162.3,3.13,-21.57,-30.01,0,*75
1498075278.48,29574,21.94,74158.3,3.13,-21.39,-29.79,0,*7D
1498075279.7,29575,21.94,74152.5,3.13,-21.23,-29.79,0,*77
1498075280.9,29576,21.94,74148.0,3.13,-21.39,-29.95,0,*7D
1498075282.15,29577,21.94,74152.0,3.13,-21.57,-30.01,0,*71
1498075283.37,29578,21.94,74142.3,3.13,-21.57,-30.11,0,*7F
1498075284.62,29579,21.94,74136.8,3.15,-21.57,-30.27,0,*7D
1498075285.82,29580,21.94,74150.3,3.13,-21.73,-30.45,0,*7F
1498075287.04,29581,21.94,74152.5,3.11,-21.77,-30.23,0,*78
1498075288.24,29582,21.94,74156.0,3.13,-21.73,-30.27,0,*79
1498075289.47,29583,21.94,74162.3,3.13,-21.83,-30.33,0,*72
1498075290.7,29584,21.94,74160.3,3.13,-21.73,-30.17,0,*7C
1498075291.93,29585,21.94,74166.0,3.11,-21.73,-30.23,0,*78
1498075293.13,29586,21.94,74154.0,3.13,-21.39,-29.83,0,*75
1498075294.33,29587,21.94,74164.0,3.13,-21.13,-29.67,0,*76
1498075295.55,29588,21.94,74168.3,3.13,-21.09,-29.51,0,*77
1498075296.77,29589,21.94,74164.8,3.11,-21.09,-29.45,0,*71
1498075298.02,29590,21.94,74152.0,3.15,-21.03,-29.45,0,*77
1498075299.24,29591,21.94,74154.3,3.13,-21.23,-29.79,0,*7D
1498075300.48,29592,21.94,74152.3,3.15,-21.43,-30.01,0,*79
1498075301.76,29593,21.94,74154.3,3.15,-21.57,-30.17,0,*7A
1498075303.03,29594,21.94,74162.0,3.15,-21.57,-30.17,0,*7D
1498075304.29,29595,21.94,74160.0,3.13,-21.57,-30.17,0,*7A
1498075305.53,29596,21.94,74164.3,3.15,-21.57,-30.11,0,*79
1498075306.77,29597,21.94,74168.5,3.15,-21.57,-30.11,0,*78
1498075308.0,29598,21.94,74164.8,3.13,-21.53,-30.11,0,*75
1498075309.22,29599,21.94,74162.8,3.13,-21.43,-30.01,0,*74
1498075310.45,29600,21.94,74174.0,3.13,-21.53,-30.11,0,*77
1498075311.67,29601,21.94,74172.8,3.13,-21.27,-29.83,0,*76
1498075312.89,29602,21.94,74168.0,3.15,-21.09,-29.67,0,*75
1498075314.12,29603,21.94,74168.0,3.13,-21.09,-29.51,0,*77
1498075315.36,29604,21.94,74168.0,3.15,-21.23,-29.79,0,*74
1498075316.57,29605,21.94,74150.5,3.15,-21.13,-29.79,0,*76
1498075317.8,29606,21.94,74144.0,3.13,-21.27,-29.95,0,*76
1498075319.01,29607,21.94,74146.8,3.15,-21.43,-30.11,0,*77
1498075320.21,29608,21.94,74154.8,3.13,-21.39,-30.11,0,*73
1498075321.43,29609,21.94,74140.5,3.13,-21.27,-30.11,0,*7D
1498075322.65,29610,21.94,74148.8,3.13,-21.43,-30.01,0,*76
1498075323.85,29611,21.94,74130.5,3.13,-21.39,-30.11,0,*7B
1498075325.12,29612,21.94,74136.0,3.11,-21.33,-30.17,0,*76
1498075326.4,29613,21.94,74140.0,3.11,-21.27,-29.89,0,*7D
1498075327.65,29614,21.94,74136.5,3.09,-21.27,-30.01,0,*7B
1498075328.89,29615,21.94,74134.0,3.11,-21.13,-29.73,0,*79
1498075330.14,29616,21.94,74140.5,3.11,-21.17,-30.01,0,*73
1498075331.39,29617,21.94,74156.3,3.11,-21.17,-30.01,0,*72
1498075332.59,29618,21.94,74166.3,3.13,-21.13,-29.83,0,*79
1498075333.79,29619,21.94,74114.8,3.13,-21.13,-29.79,0,*7D
1498075335.06,29620,21.94,74110.3,3.11,-21.27,-30.01,0,*75
1498075336.34,29621,21.94,74120.5,3.11,-21.27,-30.01,0,*74
1498075337.57,29622,21.94,74110.8,3.13,-21.03,-29.67,0,*7B
1498075338.79,29623,21.94,74134.5,3.13,-20.89,-29.39,0,*72
1498075339.99,29624,21.94,74166.8,3.13,-20.89,-29.79,0,*71
1498075341.21,29625,21.94,74148.0,3.13,-21.03,-29.67,0,*7C
1498075342.41,29626,21.94,74152.5,3.13,-20.93,-29.45,0,*77
1498075343.6,29627,21.94,74156.3,3.13,-21.09,-29.79,0,*7B
1498075344.8,29628,21.94,74158.3,3.13,-21.13,-29.79,0,*7F
1498075346.02,29629,21.94,74160.5,3.13,-20.93,-29.51,0,*7D
1498075347.25,29630,21.94,74164.5,3.15,-20.93,-29.67,0,*76
1498075348.44,29631,21.94,74150.8,3.13,-20.73,-29.23,0,*7F
1498075349.62,29632,21.94,74148.0,3.13,-20.73,-29.23,0,*7C
1498075350.84,29633,21.94,74152.5,3.13,-20.73,-29.39,0,*76
1498075352.08,29634,21.94,74156.0,3.13,-20.79,-29.39,0,*7B
1498075353.33,29635,21.94,74150.0,3.13,-20.79,-29.51,0,*74
1498075354.57,29636,21.94,74144.8,3.15,-20.49,-29.07,0,*71
1498075355.81,29637,21.94,74148.8,3.15,-20.49,-29.07,0,*70
1498075357.07,29638,21.94,74144.5,3.15,-20.49,-29.13,0,*7A
1498075358.31,29639,21.94,74140.3,3.15,-20.59,-29.29,0,*73
1498075359.53,29640,21.94,74140.8,3.15,-20.59,-29.23,0,*77
1498075360.77,29641,21.94,74144.3,3.15,-20.49,-29.23,0,*77
1498075362.01,29642,21.94,74142.8,3.15,-20.59,-29.29,0,*7F
1498075363.25,29643,21.94,74146.8,3.15,-20.43,-29.13,0,*7C
1498075364.45,29644,21.94,74144.8,3.17,-20.39,-29.07,0,*71
1498075365.67,29645,21.94,74148.0,3.17,-20.43,-29.17,0,*7C
1498075366.91,29646,21.94,74154.0,3.15,-20.49,-29.23,0,*70
1498075368.13,29647,21.94,74158.5,3.15,-20.43,-29.23,0,*7B
1498075369.37,29648,21.94,74154.8,3.15,-20.59,-29.39,0,*74
1498075370.61,29649,21.94,74160.3,3.15,-20.63,-29.29,0,*7D
1498075371.84,29650,21.94,74154.5,3.17,-20.43,-29.35,0,*78
1498075373.04,29651,21.94,74150.3,3.17,-20.43,-29.07,0,*78
1498075374.31,29652,21.94,74134.0,3.19,-20.49,-29.17,0,*7E
1498075375.5,29653,21.94,74128.0,3.17,-20.69,-29.61,0,*72
1498075376.72,29654,21.94,74146.5,3.17,-20.69,-29.39,0,*78
1498075377.92,29655,21.94,74146.3,3.17,-20.69,-29.45,0,*72
1498075379.12,29656,21.94,74148.0,3.17,-20.69,-29.45,0,*71
1498075380.32,29657,21.94,74138.8,3.17,-20.69,-29.45,0,*70
1498075381.52,29658,21.94,74152.5,3.17,-20.69,-29.45,0,*7F
1498075382.77,29659,21.94,74156.0,3.17,-20.53,-29.35,0,*70
1498075383.98,29660,21.94,74146.8,3.17,-20.29,-29.17,0,*77
1498075385.16,29661,21.94,74148.3,3.17,-20.29,-29.23,0,*71
1498075386.39,29662,21.94,74142.3,3.15,-20.59,-29.67,0,*77
1498075387.59,29663,21.94,74146.0,3.17,-20.59,-29.61,0,*72
1498075388.79,29664,21.94,74142.3,3.17,-20.59,-29.61,0,*75
1498075390.04,29665,21.94,74112.0,3.17,-20.53,-29.39,0,*73
1498075391.26,29666,21.94,74122.5,3.17,-20.53,-29.45,0,*7B
1498075392.53,29667,21.94,74134.5,3.19,-20.53,-29.39,0,*7F
1498075393.75,29668,21.94,74128.5,3.17,-20.53,-29.45,0,*75
1498075394.98,29669,21.94,74140.0,3.17,-20.53,-29.45,0,*74
1498075396.23,29670,21.94,74144.3,3.17,-20.53,-29.73,0,*79
1498075397.45,29671,21.94,74164.0,3.17,-20.43,-29.39,0,*77
1498075398.67,29672,21.94,74150.3,3.17,-20.39,-29.39,0,*79
1498075399.93,29673,21.94,74136.3,3.15,-20.35,-29.29,0,*77
1498075401.13,29674,21.94,74134.5,3.15,-20.29,-29.23,0,*77
1498075402.38,29675,21.94,74140.3,3.15,-20.43,-29.39,0,*71
1498075403.6,29676,21.94,74148.3,3.15,-20.43,-29.45,0,*79
1498075404.87,29677,21.94,74150.5,3.15,-20.49,-29.51,0,*77
1498075406.09,29678,21.94,74150.5,3.13,-20.49,-29.79,0,*74
1498075407.32,29679,21.94,74150.5,3.13,-20.49,-29.67,0,*7A
1498075408.52,29680,21.88,74152.0,3.13,-20.43,-29.67,0,*76
1498075409.76,29681,21.94,74160.8,3.15,-20.29,-29.51,0,*78
1498075411.0,29682,21.94,74158.0,3.13,-20.19,-29.29,0,*71
1498075412.21,29683,21.94,74152.5,3.13,-20.19,-29.23,0,*7A
1498075413.47,29684,21.94,74144.8,3.15,-20.15,-29.29,0,*7D
1498075414.68,29685,21.94,74148.3,3.15,-20.29,-29.45,0,*79
1498075415.94,29686,21.94,74140.0,3.15,-20.19,-29.29,0,*73
1498075417.18,29687,21.94,74142.0,3.15,-19.99,-29.13,0,*79
1498075418.39,29688,21.94,74146.3,3.13,-19.85,-29.07,0,*78
1498075419.61,29689,21.94,74138.5,3.15,-19.95,-29.07,0,*7E
1498075420.84,29690,21.94,74120.0,3.15,-20.09,-29.29,0,*75
1498075422.09,29691,21.94,74112.0,3.13,-20.19,-29.51,0,*7C
1498075423.33,29692,21.94,74112.3,3.13,-20.15,-29.51,0,*73
1498075424.57,29693,21.94,74122.5,3.15,-20.29,-29.51,0,*7B
1498075425.8,29694,21.94,74116.5,3.13,-20.19,-29.67,0,*7C
1498075427.04,29695,21.94,74122.5,3.13,-20.19,-29.51,0,*78
1498075428.31,29696,21.94,74128.5,3.15,-20.19,-29.51,0,*7D
1498075429.5,29697,21.94,74130.8,3.13,-20.09,-29.45,0,*7E
1498075430.75,29698,21.94,74130.0,3.13,-20.19,-29.51,0,*75
1498075431.97,29699,21.94,74130.8,3.15,-20.09,-29.45,0,*76
1498075433.17,29700,21.94,74130.8,3.13,-19.95,-29.45,0,*7E
1498075434.36,29701,21.94,74138.5,3.13,-20.09,-29.67,0,*70
1498075435.63,29702,21.94,74146.3,3.15,-20.15,-29.51,0,*7D
1498075436.86,29703,21.94,74152.0,3.13,-19.95,-29.51,0,*78
1498075438.09,29704,21.94,74140.0,3.13,-19.81,-29.13,0,*7C
1498075439.33,29705,21.94,74166.0,3.13,-19.81,-29.13,0,*7D
1498075440.56,29706,21.94,74158.3,3.13,-19.81,-29.29,0,*77
1498075441.8,29707,21.94,74148.0,3.13,-19.65,-29.13,0,*75
1498075443.05,29708,21.94,74156.8,3.13,-19.57,-29.13,0,*7B
1498075444.29,29709,21.94,74144.0,3.13,-19.65,-29.13,0,*7B
1498075445.49,29710,21.94,74136.5,3.13,-19.71,-29.23,0,*75
1498075446.74,29711,21.94,74132.0,3.13,-19.57,-29.13,0,*73
1498075447.96,29712,21.88,74124.3,3.13,-19.51,-29.13,0,*76
1498075449.15,29713,21.94,74130.3,3.13,-19.71,-29.23,0,*76
1498075450.4,29714,21.94,74124.3,3.13,-19.85,-29.51,0,*7F
1498075451.61,29715,21.94,74108.5,3.13,-19.71,-29.45,0,*70
1498075452.83,29716,21.94,74110.0,3.13,-19.71,-29.39,0,*78
1498075454.07,29717,21.94,74136.8,3.15,-19.81,-29.45,0,*7B
1498075455.31,29718,21.94,74138.8,3.13,-19.41,-29.13,0,*7D
1498075456.58,29719,21.94,74136.0,3.15,-19.65,-29.39,0,*74
1498075457.82,29720,21.94,74140.3,3.13,-19.65,-29.39,0,*78
1498075459.08,29721,21.94,74148.0,3.11,-19.71,-29.51,0,*70
1498075460.32,29722,21.94,74140.5,3.11,-19.47,-29.17,0,*74
1498075461.56,29723,21.94,74146.8,3.15,-19.37,-29.13,0,*72
1498075462.84,29724,21.94,74128.5,3.15,-19.27,-29.13,0,*74
1498075464.04,29725,21.94,74116.3,3.13,-19.51,-29.45,0,*71
1498075465.29,29726,21.94,74116.8,3.13,-19.57,-29.39,0,*7F
1498075466.55,29727,21.94,74110.0,3.13,-19.65,-29.51,0,*71
1498075467.77,29728,21.94,74118.8,3.15,-19.71,-29.67,0,*78
1498075469.0,29729,21.94,74120.8,3.13,-19.57,-29.67,0,*7B
1498075470.26,29730,21.94,74128.0,3.13,-19.65,-29.51,0,*77
1498075471.51,29731,21.94,74130.3,3.15,-19.51,-29.51,0,*77
1498075472.74,29732,21.88,74132.8,3.13,-19.51,-29.51,0,*72
1498075473.96,29733,21.94,74130.3,3.13,-19.41,-29.45,0,*77
1498075475.22,29734,21.94,74132.0,3.13,-19.41,-29.51,0,*75
1498075476.42,29735,21.94,74132.0,3.13,-19.37,-29.45,0,*70
1498075477.63,29736,21.94,74134.3,3.13,-19.51,-29.67,0,*73
1498075478.86,29737,21.94,74138.8,3.13,-19.57,-29.67,0,*74
1498075480.06,29738,21.94,74142.3,3.13,-19.51,-29.67,0,*7D
1498075481.27,29739,21.94,74140.5,3.13,-19.37,-29.45,0,*7C
1498075482.49,29740,21.94,74146.5,3.13,-19.41,-29.45,0,*73
1498075483.7,29741,21.88,74140.5,3.13,-19.51,-29.67,0,*73
1498075484.93,29742,21.94,74144.8,3.13,-19.27,-29.45,0,*71
1498075486.15,29743,21.94,74142.0,3.13,-19.07,-29.13,0,*71
1498075487.39,29744,21.94,74140.3,3.15,-19.03,-29.13,0,*74
1498075488.6,29745,21.94,74140.5,3.13,-19.03,-29.13,0,*73
1498075489.8,29746,21.94,74142.5,3.13,-19.13,-29.23,0,*72
1498075491.02,29747,21.88,74136.3,3.15,-19.03,-29.07,0,*72
1498075492.23,29748,21.94,74142.3,3.15,-19.03,-29.07,0,*7D
1498075493.49,29749,21.94,74128.5,3.15,-18.89,-28.91,0,*71
1498075494.72,29750,21.94,74106.3,3.13,-19.13,-29.29,0,*7F
1498075495.92,29751,21.94,74128.3,3.17,-19.37,-29.45,0,*76
1498075497.12,29752,21.88,74104.3,3.17,-19.03,-29.23,0,*72
1498075498.37,29753,21.94,74096.3,3.17,-19.23,-29.39,0,*7A
1498075499.56,29754,21.94,74116.3,3.17,-19.47,-29.79,0,*7B
1498075500.76,29755,21.88,74128.0,3.17,-19.51,-29.79,0,*7D
1498075501.98,29756,21.94,74138.3,3.15,-19.51,-29.79,0,*7C
1498075503.21,29757,21.94,74132.5,3.17,-19.31,-29.45,0,*76
1498075504.45,29758,21.94,74134.8,3.15,-19.57,-29.79,0,*74
1498075505.67,29759,21.94,74140.8,3.15,-19.51,-29.79,0,*73
1498075506.9,29760,21.94,74142.3,3.15,-19.37,-29.67,0,*76
1498075508.1,29761,21.94,74140.8,3.17,-19.37,-29.61,0,*73
1498075509.32,29762,21.88,74128.5,3.17,-19.47,-29.73,0,*74
1498075510.57,29763,21.94,74130.8,3.17,-19.65,-30.05,0,*7C
1498075511.8,29764,21.94,74138.8,3.17,-19.75,-30.05,0,*7A
1498075512.99,29765,21.94,74144.8,3.17,-19.75,-29.95,0,*7A
1498075514.19,29766,21.94,74146.3,3.17,-19.75,-29.95,0,*79
1498075515.41,29767,21.88,74144.3,3.17,-19.65,-29.95,0,*79
1498075516.64,29768,21.88,74134.5,3.15,-19.71,-30.11,0,*75
1498075517.91,29769,21.94,74126.8,3.15,-19.85,-30.17,0,*79
1498075519.12,29770,21.94,74140.0,3.17,-19.81,-30.23,0,*70
1498075520.39,29771,21.94,74158.3,3.15,-19.85,-30.17,0,*70
1498075521.63,29772,21.94,74146.8,3.15,-19.81,-30.11,0,*71
1498075522.88,29773,21.94,74138.3,3.15,-19.71,-30.01,0,*7E
1498075524.08,29774,21.94,74132.0,3.13,-19.71,-30.11,0,*7E
1498075525.32,29775,21.94,74160.5,3.15,-19.85,-30.11,0,*72
1498075526.55,29776,21.94,74148.8,3.13,-19.71,-30.01,0,*7D
1498075527.77,29777,21.94,74136.5,3.15,-19.71,-29.95,0,*7F
1498075528.98,29778,21.94,74142.8,3.13,-19.81,-30.11,0,*7D
1498075530.22,29779,21.94,74120.5,3.13,-19.81,-30.01,0,*7D
1498075531.45,29780,21.94,74122.5,3.13,-19.65,-29.83,0,*73
1498075532.68,29781,21.94,74132.5,3.15,-19.51,-29.67,0,*79
1498075533.9,29782,21.94,74144.0,3.13,-19.57,-29.79,0,*75
1498075535.11,29783,21.94,74146.5,3.13,-19.71,-29.95,0,*72
1498075536.34,29784,21.94,74142.8,3.13,-19.71,-30.01,0,*70
1498075537.56,29785,21.94,74144.3,3.15,-19.71,-29.95,0,*72
1498075538.79,29786,21.94,74144.5,3.13,-19.71,-30.01,0,*72
1498075540.02,29787,21.88,74152.8,3.13,-19.57,-29.83,0,*75
1498075541.27,29788,21.94,74144.0,3.15,-19.65,-29.83,0,*7D
1498075542.52,29789,21.94,74142.5,3.15,-19.57,-29.83,0,*7D
1498075543.76,29790,21.94,74146.0,3.15,-19.81,-29.83,0,*7E
1498075545.01,29791,21.94,74150.8,3.15,-19.65,-29.95,0,*72
1498075546.21,29792,21.88,74150.5,3.13,-19.71,-29.83,0,*75
1498075547.44,29793,21.88,74146.8,3.15,-19.71,-29.83,0,*72
1498075548.65,29794,21.94,74150.5,3.13,-19.71,-29.83,0,*73
1498075549.89,29795,21.94,74158.3,3.15,-19.65,-29.79,0,*74
1498075551.14,29796,21.94,74156.0,3.15,-19.65,-29.67,0,*78
1498075552.36,29797,21.88,74152.5,3.13,-19.23,-29.23,0,*7D
1498075553.63,29798,21.94,74156.3,3.15,-19.27,-29.13,0,*73
1498075554.83,29799,21.94,74146.5,3.13,-19.37,-29.23,0,*76
1498075556.05,29800,21.94,74138.0,3.13,-19.41,-29.23,0,*78
1498075557.3,29801,21.88,74118.5,3.13,-19.57,-29.39,0,*75
1498075558.56,29802,21.88,74118.0,3.13,-19.57,-29.51,0,*78
1498075559.83,29803,21.88,74138.5,3.15,-19.57,-29.39,0,*71
1498075561.05,29804,21.88,74142.8,3.13,-19.41,-29.23,0,*7C
1498075562.27,29805,21.94,74150.0,3.13,-19.23,-29.07,0,*7F
1498075563.49,29806,21.94,74144.8,3.13,-19.07,-28.75,0,*7E
1498075564.74,29807,21.88,74136.0,3.13,-19.23,-28.91,0,*73
1498075565.99,29808,21.94,74150.8,3.15,-19.07,-28.91,0,*7C
1498075567.21,29809,21.94,74144.8,3.13,-19.07,-28.79,0,*7D
1498075568.45,29810,21.88,74130.3,3.15,-19.07,-28.91,0,*75
1498075569.67,29811,21.88,74134.0,3.13,-19.07,-28.75,0,*78
1498075570.92,29812,21.94,74136.5,3.13,-19.23,-28.79,0,*71
1498075572.17,29813,21.94,74140.0,3.15,-19.13,-28.91,0,*73
1498075573.39,29814,21.94,74122.8,3.13,-19.07,-28.75,0,*7D
1498075574.62,29815,21.88,74116.3,3.13,-19.13,-28.79,0,*75
1498075575.87,29816,21.94,74122.5,3.15,-19.13,-28.79,0,*70
1498075577.1,29817,21.94,74128.0,3.13,-19.13,-28.75,0,*7B
1498075578.35,29818,21.88,74122.3,3.15,-19.13,-28.91,0,*78
1498075579.6,29819,21.88,74140.8,3.15,-19.13,-28.75,0,*73
1498075580.84,29820,21.88,74144.3,3.13,-19.23,-28.79,0,*70
1498075582.09,29821,21.88,74136.8,3.15,-19.07,-28.63,0,*7A
1498075583.32,29822,21.88,74138.3,3.13,-19.07,-28.63,0,*7F
1498075584.57,29823,21.88,74154.3,3.15,-19.07,-28.59,0,*71
1498075585.8,29824,21.88,74150.3,3.13,-19.03,-28.59,0,*74
1498075587.02,29825,21.88,74150.3,3.13,-19.07,-28.75,0,*7F
1498075588.29,29826,21.88,74154.8,3.15,-18.93,-28.63,0,*71
1498075589.54,29827,21.94,74152.3,3.13,-18.93,-28.43,0,*74
1498075590.75,29828,21.88,74150.0,3.17,-18.83,-28.31,0,*7B
1498075592.01,29829,21.88,74144.3,3.15,-18.89,-28.43,0,*77
1498075593.28,29830,21.94,74148.3,3.15,-18.89,-28.43,0,*7F
1498075594.52,29831,21.94,74148.5,3.13,-18.89,-28.43,0,*78
1498075595.76,29832,21.88,74148.0,3.15,-19.03,-28.47,0,*7A
1498075597.01,29833,21.88,74150.0,3.15,-19.03,-28.47,0,*7B
1498075598.25,29834,21.88,74150.8,3.13,-18.89,-28.43,0,*7D
1498075599.52,29835,21.88,74148.3,3.15,-18.93,-28.59,0,*7A
1498075600.72,29836,21.88,74142.5,3.13,-18.79,-28.37,0,*73
1498075601.97,29837,21.88,74134.0,3.15,-18.65,-28.21,0,*7E
1498075603.22,29838,21.94,74130.5,3.15,-18.49,-28.05,0,*79
1498075604.47,29839,21.88,74130.8,3.15,-18.73,-28.25,0,*73
1498075605.73,29840,21.88,74130.3,3.15,-18.89,-28.43,0,*78
1498075606.95,29841,21.88,74138.8,3.17,-18.89,-28.53,0,*7A
1498075608.18,29842,21.88,74138.0,3.17,-18.89,-28.53,0,*79
1498075609.42,29843,21.88,74132.3,3.15,-19.03,-28.63,0,*7A
1498075610.67,29844,21.88,74134.5,3.15,-19.07,-28.91,0,*74
1498075611.91,29845,21.88,74132.3,3.15,-19.23,-28.97,0,*75
1498075613.16,29846,21.88,74116.0,3.15,-19.23,-28.97,0,*76
1498075614.39,29847,21.94,74100.3,3.13,-19.27,-29.07,0,*7D
1498075615.62,29848,21.88,74102.3,3.13,-19.27,-29.07,0,*72
1498075616.87,29849,21.88,74140.8,3.15,-19.27,-28.97,0,*7D
1498075618.09,29850,21.88,74138.5,3.13,-19.23,-28.97,0,*77
1498075619.3,29851,21.88,74130.0,3.13,-19.13,-28.97,0,*75
1498075620.55,29852,21.88,74132.0,3.15,-19.27,-28.97,0,*77
1498075621.8,29853,21.88,74130.8,3.15,-19.27,-29.07,0,*7E
1498075623.03,29854,21.88,74126.3,3.13,-19.27,-29.07,0,*7F
1498075624.26,29855,21.88,74124.5,3.13,-19.27,-29.07,0,*7E
1498075625.47,29856,21.88,74152.5,3.15,-19.37,-29.07,0,*7A
1498075626.7,29857,21.88,74152.5,3.13,-19.23,-29.07,0,*78
1498075627.93,29858,21.94,74136.5,3.15,-19.41,-29.07,0,*75
1498075629.16,29859,21.88,74114.3,3.13,-19.27,-29.07,0,*72
1498075630.38,29860,21.88,74122.5,3.15,-19.37,-29.07,0,*7F
1498075631.6,29861,21.88,74112.5,3.15,-19.37,-29.07,0,*7E
1498075632.8,29862,21.88,74112.3,3.13,-19.37,-29.07,0,*7B
1498075634.02,29863,21.88,74132.5,3.13,-19.41,-29.07,0,*7B
1498075635.23,29864,21.88,74124.8,3.13,-19.41,-29.07,0,*7C
1498075636.45,29865,21.88,74112.0,3.13,-19.37,-29.13,0,*79
1498075637.7,29866,21.94,74152.8,3.13,-19.41,-29.13,0,*7B
1498075638.94,29867,21.88,74142.0,3.13,-19.41,-29.13,0,*7A
1498075640.18,29868,21.88,74138.0,3.13,-19.41,-29.13,0,*75
1498075641.39,29869,21.88,74140.8,3.13,-19.51,-29.13,0,*75
1498075642.64,29870,21.88,74142.3,3.13,-19.57,-29.13,0,*7B
1498075643.89,29871,21.88,74142.3,3.13,-19.57,-29.13,0,*7A
1498075645.11,29872,21.88,74146.3,3.15,-19.71,-29.23,0,*78
1498075646.35,29873,21.88,74146.5,3.13,-19.65,-29.29,0,*70
1498075647.59,29874,21.88,74136.0,3.13,-19.81,-29.39,0,*7C
1498075648.81,29875,21.88,74134.5,3.13,-19.71,-29.29,0,*73
1498075650.03,29876,21.88,74140.0,3.13,-19.71,-29.29,0,*70
1498075651.25,29877,21.88,74150.0,3.13,-19.65,-29.23,0,*7E
1498075652.49,29878,21.88,74156.3,3.13,-19.85,-29.39,0,*74
1498075653.71,29879,21.88,74162.3,3.11,-19.91,-29.45,0,*79
1498075654.94,29880,21.88,74156.3,3.11,-19.91,-29.45,0,*7F
1498075656.19,29881,21.88,74156.5,3.13,-19.85,-29.51,0,*7C
1498075657.41,29882,21.88,74144.3,3.11,-19.99,-29.57,0,*76
1498075658.64,29883,21.88,74132.8,3.11,-19.99,-29.57,0,*77
1498075659.87,29884,21.88,74118.0,3.11,-20.05,-29.73,0,*79
1498075661.11,29885,21.88,74114.3,3.11,-20.05,-29.73,0,*78
1498075662.34,29886,21.94,74134.0,3.11,-19.99,-29.57,0,*72
1498075663.58,29887,21.88,74138.8,3.11,-20.05,-29.51,0,*7A
1498075664.77,29888,21.88,74146.5,3.09,-20.05,-29.57,0,*7A
1498075665.96,29889,21.88,74150.0,3.09,-20.05,-29.57,0,*7B
1498075667.16,29890,21.88,74150.8,3.09,-19.99,-29.45,0,*7F
1498075668.36,29891,21.88,74140.5,3.09,-19.99,-29.57,0,*7D
1498075669.57,29892,21.88,74132.8,3.09,-20.05,-29.73,0,*77
1498075670.82,29893,21.88,74136.5,3.11,-20.15,-29.57,0,*78
1498075672.06,29894,21.88,74134.8,3.09,-20.19,-29.73,0,*7C
1498075673.3,29895,21.88,74130.3,3.09,-20.15,-29.89,0,*74
1498075674.57,29896,21.88,74134.8,3.11,-20.19,-29.73,0,*77
1498075675.82,29897,21.88,74136.5,3.11,-20.25,-29.89,0,*7C
1498075677.04,29898,21.88,74144.0,3.09,-20.39,-30.01,0,*7F
1498075678.31,29899,21.88,74132.8,3.11,-20.49,-30.05,0,*74
1498075679.53,29900,21.88,74134.0,3.09,-20.39,-30.01,0,*7F
1498075680.81,29901,21.88,74144.0,3.11,-20.49,-29.89,0,*78
1498075682.04,29902,21.88,74136.8,3.09,-20.39,-29.89,0,*75
1498075683.28,29903,21.88,74136.5,3.09,-20.35,-30.01,0,*70
1498075684.5,29904,21.94,74152.5,3.09,-20.39,-29.89,0,*73
1498075685.73,29905,21.88,74138.3,3.11,-20.25,-29.83,0,*7C
1498075686.97,29906,21.88,74120.0,3.11,-20.35,-29.83,0,*7E
1498075688.17,29907,21.88,74134.0,3.09,-20.39,-29.83,0,*7A
1498075689.42,29908,21.88,74128.8,3.09,-20.49,-30.01,0,*70
1498075690.66,29909,21.88,74132.8,3.09,-20.53,-30.01,0,*7A
1498075691.91,29910,21.88,74134.5,3.09,-20.53,-30.05,0,*76
1498075693.16,29911,21.88,74134.5,3.09,-20.79,-30.17,0,*7C
1498075694.38,29912,21.88,74132.5,3.09,-20.79,-30.23,0,*78
1498075695.59,29913,21.88,74134.0,3.09,-20.79,-30.23,0,*79
1498075696.82,29914,21.88,74134.5,3.11,-20.69,-30.23,0,*76
1498075698.04,29915,21.88,74138.8,3.05,-20.83,-30.27,0,*72
1498075699.27,29916,21.88,74144.3,3.09,-20.79,-30.33,0,*7D
1498075700.5,29917,21.88,74144.0,3.07,-20.89,-30.45,0,*7C